Terminal Aerodrome Forecast
Issued by NWS Albany, NY

Home | Current Version | Previous Version | Text Only | Print | Product List | Glossary On
Versions: 1 2 3 4 5 6 7 8 9 10 11 12 13 14 15 16 17 18 19 20 21 22 23 24 25 26 27 28 29 30 31 32 33 34 35 36 37 38 39 40 41 42 43 44
000
FTUS41 KALY 050415 AAC
TAFGFL
TAF AMD
KGFL 050415Z 0504/0524 03005KT P6SM SCT030 OVC050
      TEMPO 0504/0508 OVC030
     FM050800 02005KT P6SM OVC025
     FM051200 03006KT P6SM VCSH SCT008 OVC015
     FM051700 04007KT P6SM SCT015 OVC030=

USA.gov is the U.S. government's official web portal to all federal, state and local government web resources and services.